Ouarzazate, Morocco

3:25 PM WEST on April 24, 2017 (GMT +0100)
Ouarzazate

Weather History for GMMZ - May, 2013

Change the Weather History Date:

Friday, May 31, 2013

  Actual Average Record
Temperature  
Mean Temperature 76 °F -  
Max Temperature 88 °F 93 °F - ()
Min Temperature 64 °F 64 °F - ()
Cooling Degree Days 11    
Growing Degree Days 26 (Base 50)    
Moisture  
Dew Point 32 °F    
Average Humidity 20    
Maximum Humidity 37    
Minimum Humidity 5    
Precipitation  
Precipitation 0.00 in 0.00 in - ()
Sea Level Pressure  
Sea Level Pressure 29.94 in    
Wind  
Wind Speed 12 mph ()    
Max Wind Speed 25 mph    
Max Gust Speed -    
Visibility 7.9 miles    
Events      
T = Trace of Precipitation, MM = Missing Value Source: Averaged Metar Reports

Daily Weather History Graph

Daily Weather History Graph

Search for Another Location

Airport or City:

Trip Planner

Search our weather history database for the weather conditions in past years. The results will help you decide how hot, cold, wet, or windy it might be!

Date:

Astronomy

May. 31, 2013 Rise Set
Actual Time 6:25 AM WEST 8:25 PM WEST
Civil Twilight 5:57 AM WEST 8:53 PM WEST
Nautical Twilight 5:24 AM WEST 9:26 PM WEST
Astronomical Twilight 4:49 AM WEST 10:01 PM WEST
Moon 1:10 AM WEST (5/31) 1:05 PM WEST (5/31)
Length of Visible Light 14h 55m
Length of Day
14h 00m
Waning Gibbous, 54% of the Moon is Illuminated
May 31
Waning Gibbous
May 31
Last Quarter
Jun 8
New
Jun 16
First Quarter
Jun 23
Full

Hourly Weather History & Observations

Time (WEST) Temp. Dew Point Humidity Pressure Visibility Wind Dir Wind Speed Gust Speed Precip Events Conditions
12:00 AM 68.0 °F 41.0 °F 37% 29.89 in 6.2 mi NNW 24.2 mph - N/A   Partly Cloudy
1:00 AM 68 °F 37 °F 20%  in 12 mi NNW 25.3 mph - -   Scattered Clouds
1:00 AM 68.0 °F 37.4 °F 33% 29.89 in 6.2 mi NNW 25.3 mph - N/A   Partly Cloudy
2:00 AM 69.8 °F 33.8 °F 27% 29.89 in 6.2 mi NNW 20.7 mph - N/A   Partly Cloudy
3:00 AM 69.8 °F 33.8 °F 27% 29.92 in 6.2 mi NW 19.6 mph - N/A   Partly Cloudy
4:00 AM 69 °F 35 °F 17%  in 12 mi NNW 13.8 mph - -   Scattered Clouds
4:00 AM 69.8 °F 33.8 °F 27% 29.92 in 6.2 mi NNW 13.8 mph - N/A   Partly Cloudy
5:00 AM 68.0 °F 35.6 °F 30% 29.92 in 6.2 mi NNW 11.5 mph - N/A   Partly Cloudy
6:00 AM 66.2 °F 37.4 °F 35% 29.92 in 6.2 mi SW 10.4 mph - N/A   Partly Cloudy
7:00 AM 65 °F 37 °F 24%  in 12 mi West 5.8 mph - -   Scattered Clouds
7:00 AM 64.4 °F 37.4 °F 37% 29.95 in 6.2 mi West 5.8 mph - N/A   Partly Cloudy
8:00 AM 68.0 °F 37.4 °F 33% 29.98 in - West 6.9 mph - N/A   Clear
9:00 AM 71.6 °F 35.6 °F 27% 29.98 in - West 8.1 mph - N/A   Clear
10:00 AM 74 °F 35 °F 14%  in 12 mi SSW 2.3 mph - -  
10:00 AM 73.4 °F 35.6 °F 25% 29.98 in - Variable 2.3 mph - N/A   Clear
11:00 AM 77.0 °F 30.2 °F 18% 30.01 in 6.2 mi Variable 2.3 mph - N/A   Partly Cloudy
12:00 PM 80.6 °F 30.2 °F 16% 29.98 in 6.2 mi East 4.6 mph - N/A   Partly Cloudy
1:00 PM 82 °F 28 °F 7%  in 12 mi SE 5.8 mph - -   Scattered Clouds
1:00 PM 82.4 °F 28.4 °F 14% 29.98 in 6.2 mi SE 5.8 mph - N/A   Partly Cloudy
2:00 PM 82.4 °F 28.4 °F 14% 29.95 in 6.2 mi ESE 6.9 mph - N/A   Partly Cloudy
3:00 PM 86.0 °F 26.6 °F 12% 29.95 in 6.2 mi East 8.1 mph - N/A   Partly Cloudy
4:00 PM 87 °F 28 °F 5%  in 12 mi WSW 6.9 mph - -   Scattered Clouds
4:00 PM 86.0 °F 28.4 °F 12% 29.92 in 6.2 mi WSW 6.9 mph - N/A   Partly Cloudy
5:00 PM 86.0 °F 28.4 °F 12% 29.92 in 6.2 mi Variable 3.5 mph - N/A   Partly Cloudy
6:00 PM 87.8 °F 26.6 °F 11% 29.92 in 6.2 mi Variable 2.3 mph - N/A   Partly Cloudy
7:00 PM 88 °F 27 °F 5%  in 12 mi SE 3.5 mph - -   Scattered Clouds
7:00 PM 87.8 °F 26.6 °F 11% 29.92 in 6.2 mi Variable 3.5 mph - N/A   Partly Cloudy
8:00 PM 84.2 °F 30.2 °F 14% 29.92 in 6.2 mi NNW 17.3 mph - N/A   Partly Cloudy
9:00 PM 78.8 °F 32.0 °F 18% 29.95 in 6.2 mi NNW 13.8 mph - N/A   Partly Cloudy
10:00 PM 78 °F 33 °F 10%  in 12 mi WSW 10.4 mph - -  
10:00 PM 78.8 °F 32.0 °F 18% 29.98 in - WSW 10.4 mph - N/A   Clear
11:00 PM 75.2 °F 32.0 °F 21% 30.01 in - WSW 9.2 mph - N/A   Clear